When you browse on this site, cookies collect data to enhance your experience and personalize the content and advertising you see.
Visit our Privacy Policy to learn more. By continuing to use the site, you agree to this use of cookies and data.
  • In Slovakia
  • List of Countries
  • For 7 days
  • Water Temperature
  • Satellite Maps
  • Weather Map
  • Weather Widgets
  • user-avatar
    Login

    Hourly Weather Encamp

    Today, 14 December, Friday

    Time Temperature Precipitation Wind Pressure Humidity
    00:00 -1°C° 0 mm 3 mps 617 mmHg 91%
    01:00 -1°C° 0.5 mm 3 mps 617 mmHg 91%
    02:00 -2°C° 0.5 mm 3 mps 617 mmHg 90%
    03:00 -2°C° 0.5 mm 2 mps 618 mmHg 90%
    04:00 -2°C° 0.3 mm 2 mps 618 mmHg 90%
    05:00 -2°C° 0.3 mm 2 mps 618 mmHg 89%
    06:00 -2°C° 0.3 mm 2 mps 619 mmHg 89%
    07:00 -1°C° 0.2 mm 2 mps 619 mmHg 88%
    08:00 -1°C° 0.2 mm 2 mps 620 mmHg 86%
    09:00 -1°C° 0.2 mm 2 mps 620 mmHg 85%
    10:00 0°C° 0.1 mm 3 mps 621 mmHg 82%
    11:00 +1°C° 0.1 mm 3 mps 621 mmHg 79%
    12:00 +1°C° 0.1 mm 3 mps 622 mmHg 76%
    13:00 +1°C° 0.1 mm 3 mps 622 mmHg 76%
    14:00 +1°C° 0.1 mm 3 mps 622 mmHg 77%
    15:00 +1°C° 0.1 mm 3 mps 622 mmHg 77%
    16:00 0°C° 0.1 mm 3 mps 622 mmHg 81%
    17:00 -1°C° 0.1 mm 3 mps 622 mmHg 84%
    18:00 -2°C° 0.1 mm 3 mps 622 mmHg 88%
    19:00 -2°C° 0 mm 3 mps 623 mmHg 87%
    20:00 -2°C° 0 mm 3 mps 623 mmHg 87%
    21:00 -4°C° 0 mm 3 mps 623 mmHg 87%
    22:00 -4°C° 0 mm 3 mps 623 mmHg 86%
    23:00 -3°C° 0 mm 2 mps 623 mmHg 85%

    Tomorrow, 15 December, Saturday

    Time Temperature Precipitation Wind Pressure Humidity
    00:00 -3°C° 0 mm 2 mps 623 mmHg 85%
    01:00 -4°C° 0 mm 2 mps 623 mmHg 83%
    02:00 -4°C° 0 mm 2 mps 623 mmHg 82%
    03:00 -4°C° 0 mm 2 mps 623 mmHg 81%
    04:00 -4°C° 0 mm 2 mps 623 mmHg 77%
    05:00 -4°C° 0 mm 2 mps 623 mmHg 74%
    06:00 -4°C° 0 mm 2 mps 623 mmHg 71%
    07:00 -2°C° 0 mm 2 mps 624 mmHg 68%
    08:00 +1°C° 0 mm 1 mps 624 mmHg 65%
    09:00 +3°C° 0 mm 1 mps 625 mmHg 62%
    10:00 +4°C° 0 mm 1 mps 625 mmHg 61%
    11:00 +6°C° 0 mm 1 mps 626 mmHg 60%
    12:00 +7°C° 0 mm 1 mps 627 mmHg 59%
    13:00 +7°C° 0.1 mm 1 mps 626 mmHg 65%
    14:00 +6°C° 0.1 mm 1 mps 625 mmHg 70%
    15:00 +6°C° 0.1 mm 1 mps 625 mmHg 75%
    16:00 +5°C° 0.1 mm 1 mps 625 mmHg 78%
    17:00 +4°C° 0.1 mm 1 mps 624 mmHg 81%
    18:00 +4°C° 0.1 mm 1 mps 624 mmHg 84%
    19:00 +4°C° 0.1 mm 1 mps 624 mmHg 84%
    20:00 +4°C° 0.1 mm 1 mps 624 mmHg 84%
    21:00 +4°C° 0.1 mm 1 mps 624 mmHg 84%
    22:00 +4°C° 0 mm 1 mps 624 mmHg 85%
    23:00 +3°C° 0 mm 1 mps 624 mmHg 86%

    Day after tomorrow, 16 December, Sunday

    Time Temperature Precipitation Wind Pressure Humidity
    00:00 +3°C° 0 mm 1 mps 623 mmHg 86%
    01:00 +3°C° 0.1 mm 1 mps 623 mmHg 87%
    02:00 +3°C° 0.1 mm 1 mps 623 mmHg 88%
    03:00 +3°C° 0.1 mm 1 mps 623 mmHg 88%
    04:00 +3°C° 0.2 mm 1 mps 623 mmHg 89%
    05:00 +3°C° 0.2 mm 1 mps 623 mmHg 89%
    06:00 +2°C° 0.2 mm 0 mps 623 mmHg 90%
    07:00 +3°C° 0.7 mm 1 mps 623 mmHg 90%
    08:00 +4°C° 0.7 mm 1 mps 623 mmHg 90%
    09:00 +4°C° 0.7 mm 1 mps 623 mmHg 91%
    10:00 +4°C° 1.1 mm 1 mps 623 mmHg 91%
    11:00 +4°C° 1.1 mm 1 mps 623 mmHg 92%
    12:00 +4°C° 1.1 mm 1 mps 623 mmHg 92%
    13:00 +3°C° 0.3 mm 2 mps 622 mmHg 92%
    14:00 +3°C° 0.3 mm 2 mps 622 mmHg 92%
    15:00 +2°C° 0.3 mm 3 mps 621 mmHg 92%
    16:00 +2°C° 0.1 mm 2 mps 621 mmHg 94%
    17:00 +1°C° 0.1 mm 2 mps 621 mmHg 95%
    18:00 -1°C° 0.1 mm 2 mps 621 mmHg 97%
    19:00 -1°C° 0.2 mm 2 mps 622 mmHg 96%
    20:00 -1°C° 0.2 mm 2 mps 622 mmHg 95%
    21:00 -1°C° 0.2 mm 2 mps 623 mmHg 94%
    22:00 -1°C° 0.1 mm 2 mps 623 mmHg 93%
    23:00 -2°C° 0.1 mm 2 mps 623 mmHg 92%

    17 December, Monday

    Time Temperature Precipitation Wind Pressure Humidity
    00:00 -2°C° 0.1 mm 3 mps 623 mmHg 91%
    01:00 -4°C° 0 mm 3 mps 623 mmHg 89%
    02:00 -4°C° 0 mm 3 mps 623 mmHg 88%
    03:00 -5°C° 0 mm 3 mps 623 mmHg 86%
    04:00 -5°C° 0 mm 3 mps 624 mmHg 85%
    05:00 -5°C° 0 mm 3 mps 624 mmHg 85%
    06:00 -6°C° 0 mm 3 mps 624 mmHg 84%
    07:00 -4°C° 0 mm 2 mps 625 mmHg 81%
    08:00 -3°C° 0 mm 2 mps 626 mmHg 79%
    09:00 -2°C° 0 mm 2 mps 626 mmHg 77%
    10:00 -1°C° 0 mm 2 mps 627 mmHg 71%
    11:00 +1°C° 0 mm 2 mps 628 mmHg 66%
    12:00 +2°C° 0 mm 2 mps 628 mmHg 60%
    13:00 +2°C° 0 mm 2 mps 628 mmHg 61%
    14:00 +2°C° 0 mm 2 mps 628 mmHg 62%
    15:00 +3°C° 0 mm 1 mps 628 mmHg 63%
    16:00 +1°C° 0 mm 1 mps 627 mmHg 68%
    17:00 0°C° 0 mm 1 mps 627 mmHg 73%
    18:00 -2°C° 0 mm 1 mps 627 mmHg 78%
    19:00 -2°C° 0 mm 1 mps 627 mmHg 76%
    20:00 -2°C° 0 mm 1 mps 627 mmHg 73%
    21:00 -2°C° 0 mm 1 mps 627 mmHg 70%
    22:00 -2°C° 0 mm 1 mps 627 mmHg 68%
    23:00 -2°C° 0 mm 1 mps 627 mmHg 67%

    18 December, Tuesday

    Time Temperature Precipitation Wind Pressure Humidity
    00:00 -1°C° 0 mm 1 mps 627 mmHg 65%
    01:00 -1°C° 0 mm 1 mps 626 mmHg 65%
    02:00 -1°C° 0 mm 1 mps 626 mmHg 65%
    03:00 -1°C° 0 mm 1 mps 626 mmHg 65%
    04:00 -3°C° 0 mm 2 mps 625 mmHg 63%
    05:00 -3°C° 0 mm 2 mps 625 mmHg 61%
    06:00 -4°C° 0 mm 2 mps 625 mmHg 59%
    07:00 -3°C° 0 mm 2 mps 625 mmHg 56%
    08:00 -1°C° 0 mm 2 mps 625 mmHg 52%
    09:00 +1°C° 0 mm 2 mps 626 mmHg 49%
    10:00 +2°C° 0 mm 2 mps 626 mmHg 47%
    11:00 +2°C° 0 mm 3 mps 626 mmHg 45%
    12:00 +4°C° 0 mm 3 mps 626 mmHg 43%
    13:00 +3°C° 0 mm 3 mps 625 mmHg 46%
    14:00 +3°C° 0 mm 3 mps 625 mmHg 48%
    15:00 +2°C° 0 mm 3 mps 625 mmHg 51%
    16:00 +2°C° 0 mm 2 mps 624 mmHg 53%
    17:00 +1°C° 0 mm 2 mps 624 mmHg 55%
    18:00 -1°C° 0 mm 2 mps 624 mmHg 57%
    19:00 -1°C° 0 mm 2 mps 624 mmHg 59%
    20:00 -1°C° 0 mm 2 mps 624 mmHg 61%
    21:00 -1°C° 0 mm 2 mps 624 mmHg 63%
    22:00 -1°C° 0.1 mm 2 mps 624 mmHg 66%
    23:00 -1°C° 0.1 mm 2 mps 624 mmHg 69%

    19 December, Wednesday

    Time Temperature Precipitation Wind Pressure Humidity
    00:00 +1°C° 0.1 mm 1 mps 623 mmHg 72%
    01:00 +1°C° 0.2 mm 1 mps 623 mmHg 75%
    02:00 +1°C° 0.2 mm 1 mps 623 mmHg 78%
    03:00 +1°C° 0.2 mm 1 mps 623 mmHg 81%
    04:00 +1°C° 0.2 mm 1 mps 623 mmHg 83%
    05:00 +1°C° 0.2 mm 1 mps 623 mmHg 86%
    06:00 +1°C° 0.2 mm 1 mps 623 mmHg 88%
    07:00 +2°C° 0.3 mm 1 mps 623 mmHg 88%
    08:00 +2°C° 0.3 mm 1 mps 623 mmHg 89%
    09:00 +2°C° 0.3 mm 1 mps 624 mmHg 89%
    10:00 +3°C° 0.1 mm 1 mps 624 mmHg 88%
    11:00 +4°C° 0.1 mm 1 mps 624 mmHg 87%
    12:00 +3°C° 0.1 mm 2 mps 624 mmHg 85%
    13:00 +4°C° 0.1 mm 1 mps 624 mmHg 87%
    14:00 +4°C° 0.1 mm 1 mps 623 mmHg 89%
    15:00 +3°C° 0.1 mm 1 mps 623 mmHg 90%
    16:00 +2°C° 0.1 mm 1 mps 623 mmHg 92%
    17:00 +2°C° 0.1 mm 1 mps 623 mmHg 94%
    18:00 +1°C° 0.1 mm 1 mps 623 mmHg 96%
    19:00 +1°C° 0.2 mm 1 mps 623 mmHg 95%
    20:00 +1°C° 0.2 mm 1 mps 624 mmHg 95%
    21:00 0°C° 0.2 mm 1 mps 624 mmHg 95%
    22:00 0°C° 0.1 mm 1 mps 624 mmHg 94%
    23:00 0°C° 0.1 mm 1 mps 624 mmHg 94%
    Show more